sat.trackr.live / text

‹ back to catalog

STARLINK-11173 [DTC]

NORAD 60192 · 2024-124K

PAYLOAD ACTIVE UNKNOWN

§ Identity

Operator
Country
US
Launch date
2024-07-03
Launch site
AFETR
Launch vehicle
Mass (kg)
RCS (m²)

Purposes: comms

External: N2YO · Heavens-Above · Gunter

§ Orbital elements

Epoch: 2026-05-24T23:24:26.296704Z

Period
91.74 min
Inclination
53.1589°
Eccentricity
0.0000679
Mean motion
15.69703927 rev/d
Perigee alt
359.3 km
Apogee alt
360.2 km
Semi-major
6,737.9 km
B*
7.7202e-6
RAAN
145.3367°
Arg perigee
69.2179°
Mean anomaly
290.8911°
Rev number
10,851

§ Raw data

STARLINK-11173 [DTC]1 60192U 24124K   26144.97530436  .00000347  00000+0  77202-5 0  99912 60192  53.1589 145.3367 0000679  69.2179 290.8911 15.69703927108510

JSON: /api/v1/satellites/60192 · /tle

For live sub-satellite position, see the globe view (requires WebGL).

§ Visibility from observer

Set your observer location to see the next 7 days of passes ≥ 10°. The values pass through the URL so the page stays shareable.

No JS? Fill the form by hand. The geolocation button needs JavaScript.